Location: Kershaw
(34.5481°N, 80.5823°W)
Time: 15:31:57
(UTC+00:00)

Courier 1B Rocket - Pass Details

Date: 01 October 2022
Orbit: 920 x 1202 km, 28.2° (Epoch: 08 December)

Event Time Altitude Azimuth Distance (km) Brightness Sun altitude
Rises 01:48:09 0° 248° (WSW) 3,661 8.6 -33.3°
Reaches altitude 10° 01:50:58 10° 242° (WSW) 2,680 7.7 -33.8°
Enters shadow 01:54:06 27° 225° (SW) 1,707 6.4 -34.4°
Maximum altitude 01:57:00 44° 172° (S) 1,262 - -34.9°
Drops below altitude 10° 02:02:52 10° 102° (ESE) 2,604 - -36.1°
Sets 02:05:34 0° 95° (E) 3,548 - -36.6°
